Regional Weather Roundup
Issued by NWS Burlington, VT

Home | Current Version | Previous Version | Text Only | Print | Product List | Glossary On
Versions: 1 2 3 4 5 6 7 8 9 10 11 12 13 14 15 16 17 18 19 20 21 22 23 24 25 26 27 28 29 30 31 32 33 34 35 36 37 38 39 40 41 42 43 44 45 46 47 48 49 50
000
ASUS41 KBTV 271230
RWRBTV
VERMONT REGIONAL WEATHER ROUNDUP
NATIONAL WEATHER SERVICE BURLINGTON VT
800 AM EDT WED MAY 27 2015

NOTE: "FAIR" INDICATES FEW OR NO CLOUDS BELOW 12,000 FEET WITH NO
SIGNIFICANT WEATHER AND/OR OBSTRUCTIONS TO VISIBILITY.

* THESE REPORTS ARE NOT UNDER NWS QUALITY CONTROL AND/OR DO NOT
  REPORT WEATHER SUCH AS PRECIPITATION AND FOG.

VTZ001>019-271300-
_____VERMONT_____


CITY           SKY/WX    TMP DP  RH WIND       PRES   REMARKS
BURLINGTON     PTSUNNY   77  64  64 S15G26    30.02F
6HR MIN TEMP:  72; 6HR MAX TEMP:  77; 6HR PCP:  0.01;

MORRISVILLE    PTSUNNY   74  66  76 CALM      30.07F
6HR MIN TEMP:  61; 6HR MAX TEMP:  74;

ST. JOHNSBURY*   N/A     67  63  87 MISG      30.07F
6HR MIN TEMP:  62; 6HR MAX TEMP:  67; 6HR PCP:  0.01;

LYNDONVILLE*     N/A     71  63  78 SE7       30.11S
6HR MIN TEMP:  63; 6HR MAX TEMP:  69;

MIDDLEBURY*    PTSUNNY   76  64  65 S10       30.07S
6HR MIN TEMP:  73; 6HR MAX TEMP:  76;

RUTLAND*       SUNNY     75  63  64 S3        30.09F
6HR MIN TEMP:  68; 6HR MAX TEMP:  73;

SPRINGFIELD    MOSUNNY   69  61  75 SE7       30.12F
6HR MIN TEMP:  63; 6HR MAX TEMP:  69;

HIGHGATE*        N/A     74  67  77 S5        30.00F
6HR MIN TEMP:  65; 6HR MAX TEMP:  73;

NEWPORT*         N/A     72  65  80 S6        30.07F
6HR MIN TEMP:  63; 6HR MAX TEMP:  71;

BENNINGTON     MOSUNNY   75  65  70 CALM      30.11F
6HR MIN TEMP:  66; 6HR MAX TEMP:  75;

MT. MANSFIELD*   N/A     61 N/A N/A CALM        N/A

_____LAKE CHAMPLAIN_____


CITY           SKY/WX    TMP DP  RH WIND       PRES   REMARKS
BURTON ISLAND*   N/A     66  63  88 S9          N/A
COLCHESTER RF*   N/A     68  61  77 SW26        N/A
DIAMOND ISL*     N/A     68  63  83 S8          N/A

$$

NYZ007-026>031-035-052-083-271300-
_____NORTHERN NEW YORK_____


CITY           SKY/WX    TMP DP  RH WIND       PRES   REMARKS
PLATTSBURGH    MOSUNNY   71  65  81 E5        30.00S
6HR MIN TEMP:  64; 6HR MAX TEMP:  72; 6HR PCP:  0.03;

SARANAC LAKE   MOSUNNY   73  64  73 SW13      30.05S
6HR MIN TEMP:  66; 6HR MAX TEMP:  73;

MASSENA        LGT RAIN  75  66  73 SW9       29.97S
6HR MIN TEMP:  62; 6HR MAX TEMP:  76; 6HR PCP: TRACE;

OGDENSBURG*    PTSUNNY   75  66  73 SW8       29.97S
POTSDAM*       CLOUDY    73  70  88 S5        29.99R
WATERTOWN      PTSUNNY   75  65  70 S10G23    29.99R
6HR MIN TEMP:  72; 6HR MAX TEMP:  76; 6HR PCP: TRACE;

FT DRUM        MOSUNNY   75  68  78 SW15      30.00R
                                      6HR PCP:  0.01;

ALBANY         PTSUNNY   73  64  73 S13G22    30.09S
6HR MIN TEMP:  71; 6HR MAX TEMP:  74;

GLENS FALLS    SUNNY     73  64  73 S8        30.07F
6HR MIN TEMP:  70; 6HR MAX TEMP:  74;


$$
NHZ002-005-011-271300-
_____NEW HAMPSHIRE_____


CITY           SKY/WX    TMP DP  RH WIND       PRES   REMARKS
LEBANON        PTSUNNY   72  63  73 S8        30.10F
6HR MIN TEMP:  66; 6HR MAX TEMP:  73;

KEENE          SUNNY    N/A N/A N/A S5        30.15S
MT WASHINGTON  FOG       54  54 100 W38         N/A  VSB 0
6HR MIN TEMP:  51; 6HR MAX TEMP:  53; 6HR PCP:  0.10;

PLYMOUTH         N/A     69  66  92 CALM      30.11S
6HR MIN TEMP:  61; 6HR MAX TEMP:  67;

WHITEFIELD     LGT RAIN  69  65  86 W3        30.10S
6HR MIN TEMP:  58; 6HR MAX TEMP:  69; 6HR PCP:  0.07;


$$

_____REGIONAL QUEBEC LOCATIONS_____


CITY           SKY/WX    TMP DP  RH WIND       PRES   REMARKS
MONTREAL       PTSUNNY   77  66  69 S10       29.95F
QUEBEC CITY    CLOUDY    59  57  94 NE9       30.01F FOG
SHERBROOKE     PTSUNNY   64 N/A N/A NE2       30.05F

_____REGIONAL ONTARIO LOCATIONS_____


CITY           SKY/WX    TMP DP  RH WIND       PRES   REMARKS
OTTAWA         PTSUNNY   72  66  83 S12G22    29.94F

______KEY______
VSB  - VISIBILITY IN MILES
WCI  - WIND CHILL INDEX
HX   - HEAT INDEX
$$
NNNN


USA.gov is the U.S. government's official web portal to all federal, state and local government web resources and services.